Weather in Omaha

United States     41°15′31″N   95°56′26″W
temp.,
°C
wind,
m/s
gust,
m/s
humid.,
%
clouds,
%
prec.,
mm/h
press.,
hPa
HPBL,
m
26 may, thu
thu2601:00+10n71495100 6.6 1008709
04:00+9n71294100 0.8 1008631
07:00+9n61195100 0.9 1009572
10:00+10n61093100 0.0 1011527
13:00+11n7985100 0.0 1012601
16:00+15n797070 0.0 1011862
19:00+14n49761 0.0 1011537
22:00+11nne22870 0.0 101215
27 may, fri
fri2701:00+9nne22890 0.0 101310
04:00+8n22910 0.0 101423
07:00+9n23890 0.0 101570
10:00+16nne23670 0.0 1015434
13:00+22se01545 0.0 1013803
16:00+24s22515 0.0 10121195
19:00+22sse46649 0.0 1010272
22:00+17se4108410 0.0 1011159
28 may, sat
sat2801:00+16se6148150 0.0 1009319
04:00+15sse8178596 0.0 1007408
07:00+15sse7168994 0.5 1007469
10:00+20s81576100 0.0 1005756
13:00+25s8106575 0.0 10031250
16:00+27s796325 0.0 10001349
19:00+26s61073100 0.0 999748
22:00+22se61491100 0.0 998350
29 may, sun
sun2901:00+22se71496100 0.0 997517
04:00+22sse816866 0.0 994667
07:00+21sse7158622 0.0 994467
10:00+25s71666100 0.0 993756
13:00+31ssw812491 0.0 993999
16:00+33ssw816490 0.0 9931437
19:00+29s1018630 0.0 993882
22:00+26s1123720 0.0 996894
30 may, mon
mon3001:00+25s921655 0.0 998960
04:00+24s10235441 0.0 999975
07:00+23s919545 0.0 1002773
10:00+26s9195533 0.0 10041058
13:00+30s1018490 0.0 10041283
16:00+30s917540 0.0 10041481
19:00+27s916610 0.0 10061214
22:00+24sse1018700 0.0 10071024